STARLINK-37039, 69361

Orbit data source: Space-Track

STARLINK-37039, 69361 is a payload satellite owned by SpaceX/Seattle (US) in LEO that was launched on Thu, 04 Jun 2026 UTC via an FALCON 9 launch vehicle from the Air Force Eastern Test Range (AFETR). Payload-class satellites include a variety of spacecraft equipped with specific instruments for various scientific and technological missions. These include communications satellites like Starlink; space stations such as the ISS; scientific satellites like the Hubble; Earth observation satellites from companies like Planet Labs, Umbra, and HawkEye 360; GPS; miniature CubeSats for education and research; and military/defense satellites.

Loading next visibility...
Identifier
69361, 2026-123J
Orbit
LEO
Country
Flag of USUS
Related business
Manufacturer
SpaceX/Seattle
Mission
Operational spacecraft
Bus & Motor
STARLINK V2MO, Unknown motor
Mass
575 kg wet, ~530 kg dry
Launch date (UTC)
2026-06-04 (2 months ago)
Launch vehicle
FALCON 9
Launch site
Air Force Eastern Test Range (AFETR)
Object type
Payload
Rocket body
Debris
Shape & HBR
BOX + PAN, 17.7 m
Radar Cross Section
Large (>1 m²)

Expand to show TLE details & history
Last TLE update: 9 hours ago

TLE from 9 hours ago
0 STARLINK-37039
1 69361U 26123J   26207.54709944  .00328606  00000-0  20550-2 0  9997
2 69361  53.1581  45.8992 0000399  67.0468 293.0595 15.75356267  8243
Epoch: 2026-07-26T13:07Z
TLE epoch observation values (Epoch: 2026-07-26T13:07:49.391Z)
Latitude
0.00002°
Longitude
-95.30005°
Altitude
344.43 km
Speed
7.703 km/s
True Right ascension
03h 03m 35s
True Declination
0° 00' 00"
Sunlit
Object was in daylight at epoch
Visualization orbit readout
Latitude
Unknown
Longitude
Unknown
Altitude
Unknown
Speed
Unknown
Apparent Right ascension
Unknown
Apparent Declination
Unknown
Sunlit
N/A
Visualization observer readout
Local Sidereal Time
11:37:01
Azimuth
Unknown
Elevation
Unknown
Doppler factor
Unknown
Orbital elements
Apogee altitude
344.147 km
Perigee altitude
343.611 km
Semi-major axis
6,722.016 km
Eccentricity
0.00004
Inclination
53.1581°
RAAN
45.8992°
Arg. of periapsis
67.0468°
True anomaly
293.05529°
Mean anomaly
293.0595°
Eccentric anomaly
293.0574°
Mean motion
3.93816 °/min
Orbital period
91.41 mins
BSTAR
0.002055
Loading maneuver chart data...
Computing Atmospheric mass density...
Loading historical data...
Loading historical data...
Loading historical data...
Loading historical data...
Loading historical data...
Loading historical data...
Loading historical data...

Documentation

Showing up to 5 results
|